Location: Banff
(51.1667°N, 115.5667°W)
Time: 15:13:15
(UTC+00:00)

Tiros 1 - Pass Details

Date: 06 August 2021
Orbit: 630 x 663 km, 48.4° (Epoch: 23 September)

Event Time Altitude Azimuth Distance (km) Brightness Sun altitude
Rises 03:54:44 0° 274° (W) 2,984 11.7 -5.3°
Reaches altitude 10° 03:57:08 10° 270° (W) 2,066 10.7 -5.6°
Maximum altitude 04:01:46 52° 195° (SSW) 806 7.5 -6.2°
Drops below altitude 10° 04:06:20 10° 119° (ESE) 2,041 9.1 -6.7°
Enters shadow 04:06:45 - 118° (ESE) 2,194 9.2 -6.8°
